Welcome to the New NWS' Forecast!
Most changes are behind the scenes, but click here for differences you might notice.
Latest weather observations around

Alexander City, Thomas C Russell Field Airport (KALX)

Using International System of Units (Switch to English Units)
Date/ Time (CDT) Wind (kph) Vis. (km) Weather Sky Cond. Temp (°C) Rel. Humidity Wind Chill (°C) Heat Index (°C) Pressure Precip. (cm)
Air Dwpt 6 hour Altimeter (hPa) Sea level (hPa) 1 hr 3 hr 6 hr
Max Min
Aug 18 09:55 SSW 9 16.09 Cloudy BKN014 OVC021 26 25     98%   27 1019.7        
Aug 18 09:35 SW 11 16.09 Cloudy BKN012 OVC018 26 25     98%   27 1020        
Notice The following observation data may not be complete
Aug 18 07:35   16.09 Cloudy OVC007          %              
Aug 18 06:55 SW 5 16.09 Cloudy OVC007 23 23     100%   24 1020.3        
Notice The following observation data may not be complete
Aug 18 06:35   16.09 Cloudy OVC007          %              
Aug 18 06:15 SW 5 16.09 Cloudy BKN007 OVC011 23 23     100%   24 1020        
Aug 18 05:35 SSW 8 16.09 Cloudy SCT005 OVC010 23 23     100%   24 1019.7        
Notice The following observation data may not be complete
Aug 18 04:15   16.09 Cloudy OVC006          %              
Aug 18 03:15 SSW 5 16.09 Cloudy BKN004 OVC009 23 23     100%   24 1019.7        
Aug 18 02:55 S 8 16.09 Partly Cloudy SCT004 23 23     100%   23 1019.7        
Aug 18 01:35 Calm 16.09 Mostly Cloudy SCT015 SCT022 BKN050 23 23     100%   24 1020.3        
Aug 18 01:15 Calm 16.09 Mostly Cloudy SCT017 BKN050 23 23     100%   24 1020.3        
Aug 18 00:35 Calm 16.09 Partly Cloudy SCT019 SCT024 SCT029 23 23     100%   23 1020.3        
Aug 17 21:55 Calm 16.09 Clear CLR 24 24     100%   25 1020.7        
Notice The following observation data may not be complete
Aug 17 20:35   16.09 Mostly Cloudy BKN018 BKN030          %              
Aug 17 17:55 SE 11 6.44 Heavy Rain SCT010 SCT019 SCT030 26 26     99%   28 1019.7   0    
Aug 17 15:15 SSE 5 16.09 Clear CLR 29 25     78%   35 1019.3        
Aug 17 14:55 S 8 16.09 Clear CLR 30 25     76%   35 1019.7        
Aug 17 14:35 SSW 9 16.09 Clear CLR 30 26     81%   36 1020        
Aug 17 14:15 SSW 8 16.09 Partly Cloudy SCT006 29 26     83%   36 1020        
Aug 17 13:55 Calm 11.27 Rain BKN006 BKN012 27 26     98%   30 1020.3   0    
Notice The following observation data may not be complete
Aug 17 13:35   16.09 Partly Cloudy SCT031          %              
Aug 17 13:15 SSW 17 16.09 Mostly Cloudy SCT004 SCT008 BKN031 30 25     78%   36 1020.7        
Aug 17 12:55 S 9 11.27 Light Rain SCT004 SCT008 SCT026 28 26     85%   34 1021        
Aug 17 12:35 SW 15 16.09 Partly Cloudy SCT028 29 25     77%   35 1021.3        
Aug 17 12:15 S 11 16.09 Clear CLR 29 25     78%   35 1021.3        
Aug 17 11:55 SSW 11 16.09 Clear CLR 28 25     83%   33 1021.3        
Aug 17 11:35 SW 13 16.09 Partly Cloudy SCT018 SCT033 28 25     84%   33 1021.7        
Aug 17 11:15 S 9 16.09 Partly Cloudy SCT018 SCT027 SCT040 27 25     89%   31 1022        
Aug 17 10:55 SSW 13 16.09 Mostly Cloudy SCT016 BKN022 BKN027 27 25     91%   30 1022        
Aug 17 10:35 S 9 16.09 Mostly Cloudy BKN013 BKN020 BKN026 27 25     92%   30 1022        
Aug 17 10:15 SSW 11 16.09 Mostly Cloudy BKN011 BKN016 BKN022 26 25     96%   27 1022.4        
Aug 17 09:55 SSW 11 16.09 Cloudy OVC009 25 25     99%   26 1022.7        
Aug 17 09:35 S 9 16.09 Cloudy OVC009 25 25     100%   26 1022.7        
Aug 17 09:15 S 8 16.09 Cloudy OVC007 25 25     100%   26 1022.7        
Aug 17 08:55 S 5 16.09 Cloudy BKN007 OVC010 25 25     100%   26 1022.4        
Aug 17 08:35 S 8 16.09 Cloudy OVC005 24 24     100%   25 1022.4        
Aug 17 08:15 SSE 5 16.09 Cloudy OVC005 24 24     100%   25 1022.4        
Aug 17 07:55 S 11 16.09 Cloudy OVC005 24 24     100%   25 1022.4        
Aug 17 07:35 S 8 16.09 Cloudy OVC005 24 24     100%   25 1022.4        
Aug 17 07:15 Calm 16.09 Cloudy OVC005 23 23     100%   24 1022.4        
Aug 17 06:55 Calm 16.09 Cloudy OVC007 23 23     100%   24 1022.4        
Aug 17 06:35 Calm 16.09 Cloudy OVC007 23 23     100%   24 1022.4        
Aug 17 06:15 Calm 16.09 Cloudy OVC007 23 23     100%   24 1022        
Aug 17 05:55 Calm 16.09 Mostly Cloudy BKN007 23 23     100%   24 1022        
Aug 17 05:35 SSW 5 16.09 Partly Cloudy SCT007 SCT090 23 23     100%   24 1022        
Aug 17 05:15 Calm 16.09 Cloudy OVC007 23 23     100%   24 1022        
Aug 17 04:55 S 8 16.09 Cloudy OVC007 23 23     100%   24 1022        
Aug 17 04:35 Calm 16.09 Mostly Cloudy BKN007 BKN033 23 23     100%   24 1022        
Aug 17 04:15 Calm 16.09 Mostly Cloudy BKN033 23 23     100%   24 1021.7        
Aug 17 03:55 Calm 16.09 Cloudy OVC031 23 23     100%   24 1021.3        
Aug 17 03:35 S 5 16.09 Mostly Cloudy SCT009 BKN027 BKN037 23 23     100%   24 1021.3        
Aug 17 03:15 Calm 16.09 Partly Cloudy SCT009 23 23     100%   23 1021        
Aug 17 02:55 Calm 16.09 Cloudy OVC009 23 23     100%   24 1021.3        
Aug 17 02:35 S 5 16.09 Mostly Cloudy BKN007 23 23     100%   24 1021.3        
Aug 17 02:15 SSE 5 16.09 Mostly Cloudy BKN007 23 23     100%   24 1021        
Aug 17 01:55 SSE 5 16.09 Clear CLR 23 23     100%   24 1021.3        
Aug 17 01:35 SSE 5 16.09 Clear CLR 23 23     100%   24 1021.3        
Aug 17 01:15 Calm 16.09 Clear CLR 23 23     100%   24 1021.7        
Aug 17 00:55 Calm 16.09 Clear CLR 23 23     100%   24 1021.3        
Aug 17 00:35 Calm 16.09 Clear CLR 23 23     100%   24 1021.7        
Aug 17 00:15 Calm 16.09 Clear CLR 23 23     100%   24 1021.7        
Aug 16 23:55 Calm 16.09 Clear CLR 24 24     100%   25 1021.3        
Aug 16 23:35 S 5 16.09 Clear CLR 24 24     100%   25 1022        
Aug 16 23:15 SW 5 16.09 Clear CLR 24 24     100%   25 1022.4        
Aug 16 22:55 Calm 16.09 Clear CLR 24 24     100%   25 1022.4        
Aug 16 22:35 Calm 16.09 Partly Cloudy SCT017 SCT024 SCT028 25 24     98%   26 1022.4        
Aug 16 22:15 SSW 5 16.09 Cloudy BKN017 OVC025 25 24     98%   26 1022.4        
Aug 16 21:55 SSW 8 16.09 Partly Cloudy SCT019 SCT025 25 24     96%   26 1022        
Aug 16 21:35 S 9 16.09 Mostly Cloudy BKN023 25 24     95%   26 1021.7        
Aug 16 21:15 SSE 5 16.09 Partly Cloudy SCT021 25 24     96%   26 1021.7        
Aug 16 20:55 SSE 5 16.09 Partly Cloudy SCT021 25 24     96%   26 1021.3        
Aug 16 20:35 S 5 16.09 Clear CLR 25 24     94%   26 1021.3        
Aug 16 20:15 SSW 8 16.09 Clear CLR 26 25     94%   27 1021        
Aug 16 19:55 S 8 16.09 Clear CLR 26 25     93%   28 1021        
Aug 16 19:35 Calm 16.09 Partly Cloudy SCT024 SCT030 26 25     93%   29 1021        
Aug 16 19:15 Calm 16.09 Partly Cloudy SCT026 SCT032 27 26     91%   31 1020.7        
Aug 16 18:55 SW 8 16.09 Mostly Cloudy BKN026 BKN032 28 26     87%   33 1020.7        
Aug 16 18:35 SE 8 16.09 Partly Cloudy SCT024 28 25     85%   33 1020.3        
Aug 16 18:15 SSE 8 16.09 Clear CLR 28 25     82%   34 1020.3        
Aug 16 17:55 S 13 16.09 Clear CLR 29 25     80%   34 1020.3        
Aug 16 17:35 S 13 16.09 Clear CLR 29 25     77%   34 1020        
Aug 16 17:15 S 13 16.09 Partly Cloudy SCT041 SCT050 29 24     77%   34 1020.3        
Aug 16 16:55 S 17 16.09 Partly Cloudy SCT041 SCT060 SCT070 29 25     77%   34 1020.7        
Aug 16 16:35 SSE 11 16.09 Partly Cloudy SCT041 32 25     69%   39 1020.3        
Aug 16 16:15 SE 8 11.27 Clear CLR 31 25     68%   38 1020        
Aug 16 15:55 SSE 11 2.41 Haze VV007 31 24     66%   37 1020        
Aug 16 15:35 E 5 2.41 Haze VV007 31 24     63%   37 1020.3        
Aug 16 15:15 ESE 8 16.09 Clear CLR 32 24     65%   37 1020.3        
Aug 16 14:55 NE 5 16.09 Partly Cloudy SCT036 31 24     67%   37 1020.3        
Aug 16 14:35 N 5 16.09 Partly Cloudy SCT036 31 25     70%   37 1020.3        
Aug 16 14:15 SE 5 16.09 Clear CLR 31 25     71%   38 1020.7        
Aug 16 13:55 S 9 16.09 Clear CLR 31 25     72%   38 1021        
Aug 16 13:35 SSE 5 16.09 Clear CLR 31 25     73%   37 1021        
Aug 16 13:15 Calm 16.09 Partly Cloudy SCT036 SCT043 30 25     73%   36 1021.3        
Aug 16 12:55 WSW 5 16.09 Partly Cloudy SCT034 SCT041 30 25     73%   37 1021.3        
Aug 16 12:35 S 9 16.09 Partly Cloudy SCT032 30 24     72%   36 1021.7        
Aug 16 12:15 W 5 16.09 Partly Cloudy SCT032 SCT043 30 25     75%   36 1021.7        
Aug 16 11:55 S 8 16.09 Partly Cloudy SCT027 SCT034 SCT041 29 25     78%   34 1021.7        
Aug 16 11:35 Calm 16.09 Partly Cloudy SCT025 SCT034 29 25     80%   34 1022        
Aug 16 11:15 S 11 16.09 Partly Cloudy SCT025 29 25     80%   34 1022        
Aug 16 10:55 Calm 16.09 Clear CLR 28 25     84%   32 1022        
Aug 16 10:35 SSW 9 16.09 Partly Cloudy SCT013 SCT023 27 25     88%   31 1022        
Aug 16 10:15 SE 5 16.09 Mostly Cloudy BKN013 27 25     91%   30 1022        
Aug 16 09:55 Calm 16.09 Cloudy OVC009 26 25     96%   29 1022.4        
Aug 16 09:35 WSW 5 16.09 Cloudy OVC007 25 25     99%   27 1022        
Aug 16 09:15 SSW 5 16.09 Cloudy OVC005 25 25     100%   26 1022        
Aug 16 08:55 Calm 11.27 Cloudy OVC003 24 24     100%   26 1022        
Aug 16 08:35 SSW 5 8.05 Fog/Mist OVC003 24 24     100%   25 1022        
Aug 16 08:15 Calm 6.44 Fog/Mist OVC005 24 24     100%   25 1022        
Aug 16 07:55 Calm 11.27 Cloudy OVC005 24 24     100%   25 1022        
Aug 16 07:35 Calm 16.09 Cloudy OVC005 23 23     100%   24 1022        
Aug 16 07:15 Calm 16.09 Cloudy OVC007 23 23     100%   23 1021.3        
Aug 16 06:55 Calm 16.09 Cloudy OVC007 22 22     100%   22 1021.3        
Aug 16 06:35 Calm 11.27 Partly Cloudy SCT007 21 21     100%     1020.7        
Aug 16 06:15 Calm 16.09 Clear CLR 22 22     100%   22 1020.7        
Aug 16 05:55 Calm 16.09 Partly Cloudy SCT009 21 21     100%   22 1020.7        
Aug 16 05:35 Calm 16.09 Mostly Cloudy BKN009 21 21     100%   22 1020.3        
Aug 16 05:15 Calm 11.27 Partly Cloudy SCT009 21 21     100%     1020.3        
Aug 16 04:55 Calm 16.09 Clear CLR 21 21     100%   22 1020        
Aug 16 04:35 Calm 11.27 Clear CLR 22 22     100%   23 1020        
Aug 16 04:15 Calm 16.09 Clear CLR 22 22     100%   23 1019.7        
Aug 16 03:55 Calm 16.09 Clear CLR 22 22     100%   23 1019.7        
Aug 16 03:35 Calm 16.09 Clear CLR 22 22     100%   23 1019.7        
Aug 16 03:15 Calm 16.09 Clear CLR 22 22     100%   23 1019.7        
Aug 16 02:55 Calm 16.09 Clear CLR 22 22     100%   23 1019.7        
Aug 16 02:35 Calm 16.09 Clear CLR 22 22     100%   23 1019.7        
Aug 16 02:15 Calm 16.09 Clear CLR 22 22     100%   23 1019.7        
Aug 16 01:55 Calm 16.09 Clear CLR 23 23     100%   24 1019.7        
Aug 16 01:35 Calm 16.09 Clear CLR 23 23     100%   24 1019.3        
Aug 16 01:15 Calm 16.09 Clear CLR 24 24     100%   25 1019.7        
Aug 16 00:55 Calm 16.09 Clear CLR 24 24     100%   25 1019.7        
Aug 16 00:35 Calm 16.09 Clear CLR 24 24     100%   25 1019.7        
Aug 16 00:15 Calm 16.09 Clear CLR 24 24     100%   25 1019.7        
Aug 15 23:55 Calm 16.09 Clear CLR 23 23     100%   24 1019.7        
Aug 15 23:35 Calm 16.09 Clear CLR 24 24     100%   25 1019.7        
Aug 15 23:15 Calm 16.09 Clear CLR 24 24     100%   25 1019.7        
Aug 15 22:55 Calm 16.09 Clear CLR 24 24     100%   25 1019.7        
Aug 15 22:35 Calm 16.09 Clear CLR 24 24     100%   25 1019.7        
Aug 15 22:15 Calm 16.09 Clear CLR 25 25     100%   26 1019.7        
Aug 15 21:55 Calm 16.09 Clear CLR 25 25     100%   26 1019.3        
Aug 15 21:35 Calm 16.09 Clear CLR 25 25     100%   26 1019        
Aug 15 21:15 Calm 16.09 Clear CLR 25 25     100%   26 1019        
Aug 15 20:55 Calm 16.09 Clear CLR 25 25     99%   27 1019        
Aug 15 20:35 Calm 16.09 Clear CLR 26 26     97%   28 1018.6        
Aug 15 20:15 Calm 16.09 Clear CLR 26 26     97%   29 1018.6        
Aug 15 19:55 Calm 16.09 Clear CLR 26 26     97%   29 1018.6        
Aug 15 19:35 Calm 16.09 Clear CLR 28 26     90%   32 1018.3        
Aug 15 19:15 Calm 16.09 Clear CLR 29 25     83%   34 1018.3        
Aug 15 18:55 ENE 5 16.09 Clear CLR 29 26     84%   36 1018.3        
Aug 15 18:35 Calm 16.09 Clear CLR 31 26     76%   39 1018.3        
Aug 15 18:15 Calm 16.09 Clear CLR 31 24     66%   37 1018.3        
Aug 15 17:55 Calm 16.09 Clear CLR 32 25     68%   38 1018.3        
Aug 15 17:35 S 5 16.09 Partly Cloudy SCT049 32 24     64%   38 1018.3        
Aug 15 17:15 SE 5 16.09 Partly Cloudy SCT049 32 24     61%   38 1018.3        
Aug 15 16:55 Calm 16.09 Clear CLR 32 24     62%   38 1018        
Aug 15 16:35 ESE 5 16.09 Clear CLR 32 24     60%   38 1018.3        
Aug 15 16:15 SSE 5 16.09 Clear CLR 32 23     59%   38 1018.3        
Aug 15 15:55 SSE 9 16.09 Clear CLR 32 23     60%   37 1018.3        
Aug 15 15:35 ESE 8 16.09 Clear CLR 32 23     60%   37 1018.3        
Aug 15 15:15 ENE 8 16.09 Clear CLR 32 24     60%   38 1018.3        
Aug 15 14:55 SE 8 16.09 Clear CLR 32 24     62%   37 1018.6        
Aug 15 14:35 ESE 8 16.09 Clear CLR 32 23     62%   37 1018.6        
Aug 15 14:15 SSE 5 16.09 Clear CLR 32 24     63%   37 1019        
Aug 15 13:55 S 9 16.09 Clear CLR 31 24     63%   36 1019.3        
Aug 15 13:35 S 8 16.09 Clear CLR 32 24     63%   37 1019.3        
Aug 15 13:15 S 5 16.09 Clear CLR 31 23     62%   36 1019.7        
Aug 15 12:55 SSE 5 16.09 Clear CLR 31 24     64%   36 1019.7        
Aug 15 12:35 SE 9 16.09 Clear CLR 31 24     68%   36 1019.7        
Aug 15 12:15 S 8 16.09 Clear CLR 31 24     69%   36 1019.7        
Aug 15 11:55 SE 5 16.09 Clear CLR 30 25     73%   37 1019.7        
Aug 15 11:35 S 9 16.09 Clear CLR 30 25     76%   37 1020        
Aug 15 11:15 Calm 16.09 Clear CLR 30 24     72%   35 1020        
Aug 15 10:55 Calm 16.09 Clear CLR 29 24     74%   34 1020        
Aug 15 10:35 Calm 16.09 Clear CLR 29 24     73%   33 1020.3        
Aug 15 10:15 Calm 16.09 Clear CLR 28 24     77%   31 1020.3        
Aug 15 09:55 Calm 16.09 Clear CLR 27 24     81%   31 1019.7        
Aug 15 09:35 Calm 16.09 Clear CLR 28 23     78%   31 1019.7        
Aug 15 09:15 Calm 16.09 Clear CLR 27 22     78%   29 1019.7        
Aug 15 08:55 Calm 16.09 Clear CLR 26 23     87%   26 1019.7        
Aug 15 08:35 Calm 16.09 Clear CLR 25 23     89%   26 1019.7        
Aug 15 08:15 Calm 16.09 Clear CLR 24 24     98%   25 1019.7        
Aug 15 07:55 Calm 16.09 Clear CLR 24 24     100%   25 1019        
Aug 15 07:35 Calm 16.09 Clear CLR 22 22     100%   23 1019        
Aug 15 07:15 Calm 16.09 Clear CLR 21 21     100%   22 1019        
Aug 15 06:55 Calm 16.09 Clear CLR 21 21     100%     1018.6        
Aug 15 06:35 Calm 11.27 Clear CLR 21 21     100%     1018.6        
Aug 15 06:15 Calm 11.27 Clear CLR 20 20     100%     1018.3        
Aug 15 05:55 Calm 11.27 Clear CLR 21 21     100%     1018        
Aug 15 05:35 Calm 16.09 Clear CLR 21 21     100%     1018        
Aug 15 05:15 Calm 11.27 Clear CLR 21 21     100%     1018        
Aug 15 04:55 Calm 8.05 Fog/Mist CLR 21 21     100%     1018        
Aug 15 04:35 Calm 11.27 Clear CLR 20 20     100%     1018        
Aug 15 04:15 Calm 11.27 Clear CLR 20 20     100%     1017.6        
Aug 15 03:55 Calm 11.27 Clear CLR 21 21     100%     1018        
Aug 15 03:35 Calm 16.09 Clear CLR 21 21     100%   22 1017.6        
Aug 15 03:15 Calm 11.27 Clear CLR 21 21     100%     1018        
Aug 15 02:55 Calm 11.27 Clear CLR 21 21     100%     1018        
Aug 15 02:35 Calm 16.09 Clear CLR 21 21     100%     1018        
Aug 15 02:15 Calm 11.27 Clear CLR 21 21     100%     1018        
Aug 15 01:55 Calm 16.09 Clear CLR 22 22     100%   23 1018        
Aug 15 01:35 Calm 16.09 Clear CLR 22 22     100%   23 1017.6        
Aug 15 01:15 Calm 16.09 Clear CLR 22 22     100%   23 1018        
Aug 15 00:55 Calm 16.09 Clear CLR 22 22     100%   23 1018        
Aug 15 00:35 Calm 16.09 Clear CLR 21 21     100%   22 1018.3        
Aug 15 00:15 Calm 16.09 Clear CLR 22 22     100%   23 1018.3        
Aug 14 23:55 Calm 16.09 Clear CLR 22 22     100%   23 1018.6        
Aug 14 23:35 Calm 16.09 Clear CLR 22 22     100%   23 1018.6        
Aug 14 23:15 Calm 16.09 Clear CLR 22 22     100%   23 1018.6        
Aug 14 22:55 Calm 16.09 Clear CLR 22 22     100%   23 1018.6        
Aug 14 22:35 Calm 16.09 Clear CLR 23 23     100%   23 1018.6        
May 15 05:15 Calm 16.09 Clear CLR 20 20     100%     1015.6        
May 15 01:15 Calm 16.09 Clear CLR 21 21     100%     1014.9        
May 14 23:35 Calm 16.09 Clear CLR 21 21     100%     1015.2        
May 14 18:15 Calm 16.09 Clear CLR 29 23     70%   33 1014.6        
May 14 15:15 ENE 9 16.09 Clear CLR 32 20     50%   34 1015.2        
May 14 11:15 NE 8 16.09 Clear CLR 30 21     58%   32 1017.6        
May 14 07:35 NNE 5 16.09 Clear CLR 20 18     89%     1017.6        
May 13 14:55 NW 13 16.09 Clear CLR 32 17     42%   32 1018.3        
May 13 07:55 Calm 16.09 Clear CLR 22 18     78%   22 1021        
May 12 21:15 Calm 16.09 Clear CLR 20 19     91%     1019.7        
May 12 20:55 Calm 16.09 Clear CLR 21 19     89%     1019.7        
May 12 19:35 Calm 16.09 Clear CLR 25        %     1019        
May 12 17:55 WSW 9 16.09 Clear CLR 30 17     46%   31 1018.6        
May 12 17:15 W 11 16.09 Clear CLR 31 17     44%   31 1019        
May 12 15:55 SSW 5 16.09 Clear   31 17     44%   32 1019.7        
May 12 15:35 WSW 13 16.09 Clear CLR 32 18     44%   32 1019.7        
May 12 02:55 Calm 16.09 Clear CLR 16 16     100%     1019.7        
May 11 21:15 Calm 16.09 Clear CLR 21 19     88%     1019.7        
May 11 17:15 SW 8 16.09 Clear CLR 30 17     47%   31 1018.6        
May 11 13:35 W 5 16.09 Clear CLR 29 18     51%   30 1020.3        
May 11 10:55 WSW 5 16.09 Clear CLR 27 19     62%   29 1021.3        
Jun 12 07:15 Calm 16.09 Mostly Cloudy BKN004 23 22     94%   24 1022        
Jun 12 05:35 Calm 16.09 Mostly Cloudy BKN011 21 20     96%     1021.3        
Jun 12 01:15 Calm 16.09 Partly Cloudy SCT033 22 22     96%   23 1021        
Jun 11 17:55 ESE 5 16.09 Clear CLR 29 21     60%   31 1019        
Jun 11 16:55 SE 9 16.09 Clear   30 20     54%   33 1019.7        
Jun 11 16:15 SE 8 16.09 Clear CLR 30 20     54%   33 1020.3        
Jun 11 14:55 SE 9 16.09 Clear   30 20     54%   32 1020.7        
Notice The following observation data may not be complete
Jun 11 05:15   16.09 Clear CLR          %              
Jun 10 10:15 SE 5 16.09 Clear CLR 27 17     53%   28 1019.7        
Notice The following observation data may not be complete
Jun 09 16:15   16.09 Partly Cloudy SCT055 SCT065          %              
Jun 08 17:35 NNW 5 16.09 Clear CLR 26 14     46%   26 1011.2        
Notice The following observation data may not be complete
Jun 08 12:15   16.09 Clear CLR          %              
Notice The following observation data may not be complete
Jun 08 11:15   16.09 Partly Cloudy SCT035          %              
Jun 08 09:15 SE 5 16.09 Partly Cloudy SCT041 21 15     71%     1013.6        
Notice The following observation data may not be complete
Jun 08 07:55   16.09 Partly Cloudy SCT040 SCT090          %              
Jun 08 07:35 Calm 16.09 Clear CLR 18 15     83%     1013.2        
Jun 07 20:55 N 8 16.09 Clear CLR 22 15     63%   22 1010.8        
Jun 07 15:15 E 11 16.09 Partly Cloudy SCT032 SCT060 26 19     68%   26 1008.8        
Jun 07 10:55 E 9 16.09 Mostly Cloudy BKN024 BKN031 24 19     73%   25 1009.5        
Jun 06 03:35 Calm 8.05 Fog/Mist OVC004 22 21     99%   23 1008.8        
Jun 06 00:55 Calm 11.27 Cloudy OVC002 22 22     98%   23 1010.2       0
Notice The following observation data may not be complete
Jun 05 18:35   16.09 Partly Cloudy SCT012          %              
Jun 05 16:35 WSW 8 16.09 Partly Cloudy SCT018 25 21     82%   25 1010.2        
Jun 05 15:15 S 15 16.09 Partly Cloudy SCT040 26 21     75%   26 1009.5